Location: Alfords
(31.4624°N, 83.9238°W)
Time: 10:33:43
(UTC+00:00)

Tiangong - Pass Details

Date: 05 October 2021
Orbit: 382 x 384 km, 41.5° (Epoch: 20 October)

Event Time Altitude Azimuth Distance (km) Brightness Sun altitude
Exits shadow 10:47:54 - 314° (NW) 1,514 3.7 -10.3°
Reaches altitude 10° 10:48:13 10° 317° (NW) 1,395 3.5 -10.2°
Maximum altitude 10:51:04 31° 22° (NNE) 687 2.6 -9.6°
Drops below altitude 10° 10:53:56 10° 88° (E) 1,390 5.6 -9.0°
Sets 10:56:08 0° 99° (E) 2,240 7.2 -8.5°
